Cairo, Egypt

4:47 PM EET on October 20, 2017 (GMT +0200)
Cairo International Airport

Weather History for HECA - November, 2012

Change the Weather History Date:

Sunday, November 25, 2012

  Actual Average Record
Temperature  
Mean Temperature 66 °F -  
Max Temperature 71 °F 67 °F 86 °F (2013)
Min Temperature 61 °F 51 °F 33 °F (1998)
Cooling Degree Days 1    
Growing Degree Days 16 (Base 50)    
Moisture  
Dew Point 54 °F    
Average Humidity 66    
Maximum Humidity 82    
Minimum Humidity 45    
Precipitation  
Precipitation 0.00 in 0.01 in - ()
Sea Level Pressure  
Sea Level Pressure 30.02 in    
Wind  
Wind Speed 6 mph ()    
Max Wind Speed 14 mph    
Max Gust Speed -    
Visibility 3.4 miles    
Events      
Averages and records for this station are not official NWS values.
T = Trace of Precipitation, MM = Missing Value Source: Averaged Metar Reports

Daily Weather History Graph

Daily Weather History Graph

Search for Another Location

Airport or City:

Trip Planner

Search our weather history database for the weather conditions in past years. The results will help you decide how hot, cold, wet, or windy it might be!

Date:

Astronomy

Nov. 25, 2012 Rise Set
Actual Time 6:28 AM EET 4:54 PM EET
Civil Twilight 6:02 AM EET 5:20 PM EET
Nautical Twilight 5:33 AM EET 5:49 PM EET
Astronomical Twilight 5:04 AM EET 6:18 PM EET
Moon 2:52 PM EET (11/25) 3:32 AM EET (11/25)
Length of Visible Light 11h 18m
Length of Day
10h 26m
Waxing Gibbous, 91% of the Moon is Illuminated
Nov 25
Waxing Gibbous
Nov 28
Full
Dec 6
Last Quarter
Dec 13
New
Dec 20
First Quarter

Hourly Weather History & Observations

Time (EET) Temp. Dew Point Humidity Pressure Visibility Wind Dir Wind Speed Gust Speed Precip Events Conditions
12:00 AM 66.2 °F 55.4 °F 68% 30.01 in 2.5 mi North 6.9 mph - N/A   Haze
12:30 AM 66.2 °F 55.4 °F 68% 30.01 in 2.5 mi North 6.9 mph - N/A   Haze
1:00 AM 64.4 °F 55.4 °F 73% 30.01 in 2.5 mi North 3.5 mph - N/A   Mist
1:30 AM 64.4 °F 55.4 °F 73% 30.01 in 2.5 mi North 3.5 mph - N/A   Mist
2:00 AM 64 °F 56 °F 67% 30.03 in 2 mi NNW 4.6 mph - -   Mist
2:00 AM 64.4 °F 55.4 °F 73% 30.01 in 2.5 mi NNW 4.6 mph - N/A   Mist
2:30 AM 64.4 °F 55.4 °F 73% 30.01 in 2.5 mi NNW 4.6 mph - N/A   Mist
3:00 AM 62.6 °F 55.4 °F 77% 30.01 in 2.5 mi NNW 6.9 mph - N/A   Mist
3:30 AM 62.6 °F 55.4 °F 77% 30.01 in 2.5 mi NNW 6.9 mph - N/A   Mist
4:00 AM 62.6 °F 55.4 °F 77% 30.01 in 2.5 mi NNW 3.5 mph - N/A   Mist
4:30 AM 62.6 °F 55.4 °F 77% 30.01 in 2.5 mi NNW 3.5 mph - N/A   Mist
5:00 AM 60.8 °F 55.4 °F 82% 30.01 in 1.9 mi NNE 4.6 mph - N/A   Mist
5:30 AM 60.8 °F 55.4 °F 82% 30.01 in 1.2 mi NNE 4.6 mph - N/A   Mist
6:00 AM 60.8 °F 55.4 °F 82% 30.01 in 1.2 mi NNE 2.3 mph - N/A   Mist
6:30 AM 60.8 °F 55.4 °F 82% 30.01 in 1.2 mi ESE 3.5 mph - N/A   Mist
7:00 AM 60.8 °F 55.4 °F 82% 30.01 in 1.2 mi ESE 2.3 mph - N/A   Mist
7:30 AM 62.6 °F 55.4 °F 77% 30.04 in 1.2 mi SE 2.3 mph - N/A   Mist
8:00 AM 61 °F 55 °F 75% 30.05 in 1 mi South 2.3 mph - -   Mist
8:00 AM 62.6 °F 55.4 °F 77% 30.04 in 1.2 mi South 2.3 mph - N/A   Mist
8:30 AM 64.4 °F 55.4 °F 73% 30.04 in 1.2 mi NW 3.5 mph - N/A   Mist
9:00 AM 66.2 °F 55.4 °F 68% 30.04 in 1.2 mi WNW 3.5 mph - N/A   Mist
9:30 AM 66.2 °F 55.4 °F 68% 30.04 in 3.7 mi West 9.2 mph - N/A   Unknown
10:00 AM 66.2 °F 57.2 °F 73% 30.04 in 3.7 mi West 9.2 mph - N/A   Unknown
10:30 AM 68.0 °F 55.4 °F 64% 30.04 in 3.7 mi West 6.9 mph - N/A   Unknown
11:00 AM 68.0 °F 57.2 °F 68% 30.04 in 3.7 mi West 5.8 mph - N/A   Unknown
11:30 AM 69.8 °F 51.8 °F 53% 30.01 in 3.7 mi West 8.1 mph - N/A   Unknown
12:00 PM 69.8 °F 51.8 °F 53% 30.01 in 3.7 mi NW 9.2 mph - N/A   Unknown
12:30 PM 71.6 °F 51.8 °F 50% 30.01 in - WNW 11.5 mph - N/A   Clear
1:00 PM 71.6 °F 51.8 °F 50% 29.98 in - NW 11.5 mph - N/A   Clear
1:30 PM 71.6 °F 51.8 °F 50% 29.98 in - NW 5.8 mph - N/A   Clear
2:00 PM 72 °F 55 °F 45% 29.99 in 6 mi NW 10.4 mph - -   Mostly Cloudy
2:00 PM 71.6 °F 55.4 °F 57% 30.01 in - NW 10.4 mph - N/A   Clear
2:30 PM 71.6 °F 51.8 °F 50% 29.98 in - NNW 11.5 mph - N/A   Clear
3:00 PM 71.6 °F 50.0 °F 46% 29.98 in - WNW 9.2 mph - N/A   Clear
3:30 PM 71.6 °F 51.8 °F 50% 29.98 in - West 9.2 mph - N/A   Clear
4:00 PM 71.6 °F 50.0 °F 46% 29.98 in - WNW 11.5 mph - N/A   Clear
4:30 PM 69.8 °F 51.8 °F 53% 29.98 in 6.2 mi WNW 12.7 mph - N/A   Scattered Clouds
5:00 PM 69.8 °F 51.8 °F 53% 29.98 in 6.2 mi NW 13.8 mph - N/A   Mostly Cloudy
5:30 PM 69.8 °F 51.8 °F 53% 29.98 in 6.2 mi NW 13.8 mph - N/A   Mostly Cloudy
6:00 PM 68.0 °F 53.6 °F 60% 30.01 in 6.2 mi NW 8.1 mph - N/A   Mostly Cloudy
6:30 PM 68.0 °F 53.6 °F 60% 30.01 in 6.2 mi NW 8.1 mph - N/A   Mostly Cloudy
7:00 PM 66.2 °F 53.6 °F 64% 30.04 in 6.2 mi NW 5.8 mph - N/A   Mostly Cloudy
7:30 PM 66.2 °F 53.6 °F 64% 30.04 in 6.2 mi NW 5.8 mph - N/A   Partly Cloudy
8:00 PM 66 °F 55 °F 58% 30.05 in 6 mi NW 9.2 mph - -   Scattered Clouds
8:00 PM 66.2 °F 55.4 °F 68% 30.04 in 6.2 mi NW 9.2 mph - N/A   Partly Cloudy
8:30 PM 66.2 °F 55.4 °F 68% 30.04 in 6.2 mi NW 9.2 mph - N/A   Partly Cloudy
9:00 PM 64.4 °F 53.6 °F 68% 30.06 in - WNW 5.8 mph - N/A   Clear
9:30 PM 64.4 °F 53.6 °F 68% 30.06 in - WNW 5.8 mph - N/A   Clear
10:00 PM 64.4 °F 55.4 °F 73% 30.06 in - WNW 5.8 mph - N/A   Clear
10:30 PM 64.4 °F 55.4 °F 73% 30.06 in - WNW 5.8 mph - N/A   Clear
11:00 PM 64.4 °F 55.4 °F 73% 30.06 in 3.7 mi NNW 5.8 mph - N/A   Unknown
11:30 PM 62.6 °F 55.4 °F 77% 30.06 in 3.7 mi North 3.5 mph - N/A   Unknown